Volver al catálogo

GRIFON-3

ActivoCienciaSSO
NORAD 67282·PAYLOAD·🇷🇺 Russia
Este nombre de satélite aún no ha sido confirmado por fuentes oficiales.

Lanzado Dec 28, 2025 desde Vostochny Cosmodrome

Loading…

Próximos Pases (próximas 24 horas)

TLE

ActualizadoSource: Space-Track

Época: Sep 14, 2026, 11:20 UTC

1 67282U 25313AL  26257.47289378  .00004170  00000-0  17511-3 0  9999
2 67282  97.3856 330.8577 0012007  50.6832 309.5468 15.23939382 39554

Sigue GRIFON-3 en tiempo real con AllMySat

Download on the App Store